RH
40 39 36 38 41 38 35 35 35 34 36 42 43 40 38 35 31 30 26 23 21 19 20 21 20 19 19 19 17 16 16 15 14 13 14 14 14 16 18 19 21 21 21 22 21 20 21 23 24 24 24 23 24 25 26 27 30 34 37 38 38 39 37
35 39 40 39 37 34 33 34 35 35 39 46 45 40 40 38 32 29 26 23 20 18 17 17 17 17 16 17 17 16 16 15 14 13 13 13 13 14 15 16 18 20 20 21 22 22 22 23 24 23 23 24 23 24 25 26 28 30 34 37 38 39 37
31 35 39 40 36 33 35 36 36 37 42 47 43 38 39 38 34 31 28 25 21 19 17 13 14 14 14 14 15 15 14 14 14 14 13 13 12 13 14 14 15 18 20 21 23 26 26 25 25 24 25 24 23 23 23 25 27 29 32 35 38 39 38
32 35 37 39 38 37 38 37 37 38 41 41 38 36 37 37 36 34 30 27 23 20 17 13 12 12 12 12 12 12 13 13 13 13 13 13 13 12 13 13 15 17 20 21 22 25 28 28 27 26 26 25 24 23 21 22 24 27 30 33 36 39 39
33 36 36 38 41 41 39 36 36 36 35 35 35 36 37 37 38 35 31 29 25 19 15 13 12 12 11 11 11 11 11 12 12 13 13 13 13 12 12 13 14 16 18 23 24 24 26 28 29 28 28 27 26 24 23 21 21 24 27 31 34 36 39
32 34 35 39 42 42 38 33 33 33 31 33 35 35 36 37 37 36 34 31 28 22 17 14 13 13 12 12 11 11 11 12 12 12 12 13 13 12 11 12 14 16 18 22 25 26 26 27 29 30 30 30 28 28 26 23 21 22 24 27 30 33 36
31 31 34 39 39 37 36 34 36 37 33 35 39 36 34 35 37 37 36 34 31 27 21 17 14 13 13 12 11 11 11 11 11 12 12 12 13 12 12 13 15 17 19 22 24 26 27 26 26 28 30 30 29 29 28 25 23 22 22 24 26 29 32
27 29 31 34 34 34 37 37 37 35 32 36 42 38 33 33 34 36 36 36 35 32 27 22 17 14 12 11 11 11 11 11 11 12 11 12 13 14 14 16 17 19 22 25 26 27 27 26 25 26 28 29 29 28 27 27 26 25 25 24 24 25 28
26 27 26 29 33 35 37 38 35 31 31 34 35 33 32 32 32 33 35 37 37 36 33 28 21 17 13 12 12 12 12 12 11 11 12 13 15 17 18 19 21 23 25 28 29 29 28 27 26 25 26 28 28 27 26 26 27 27 27 27 25 24 25
27 30 28 29 36 39 38 37 34 32 32 31 27 27 30 31 31 32 33 34 36 37 37 34 27 22 17 15 14 14 13 14 14 14 15 16 18 20 21 22 23 25 27 29 31 32 30 29 28 27 26 25 26 26 25 24 26 27 28 28 27 25 24
29 31 30 31 36 39 39 38 35 34 35 31 26 26 28 30 30 30 30 31 33 35 37 37 35 31 25 19 16 15 15 15 17 18 18 19 20 21 23 24 25 26 27 30 31 31 31 31 29 28 26 24 24 24 24 23 24 26 27 28 28 27 26
32 31 28 30 34 36 35 35 34 35 35 31 27 27 28 29 30 29 28 29 30 33 35 36 38 37 34 27 21 19 18 18 19 21 21 21 22 23 24 26 26 27 28 30 31 31 31 31 29 27 25 24 23 23 23 22 23 24 25 26 27 27 25
32 31 28 30 33 33 31 32 34 34 31 29 29 30 29 30 30 30 28 28 29 30 32 34 37 37 38 36 30 27 25 21 20 21 22 22 23 24 26 27 28 29 31 31 30 31 30 29 28 25 24 22 21 20 21 21 22 22 22 23 23 24 23
28 30 29 30 32 32 32 34 37 35 32 30 32 33 33 32 33 32 30 30 30 30 30 33 35 35 37 39 36 33 30 26 23 23 24 23 24 26 27 29 30 32 34 33 32 32 31 29 28 27 25 24 22 21 22 22 22 23 23 22 22 23 23
28 30 30 30 31 32 33 35 37 37 35 34 36 37 36 34 35 34 33 32 32 31 30 31 33 35 36 37 37 36 35 31 27 27 28 27 27 28 29 31 33 34 36 35 34 33 32 32 32 31 29 28 27 26 25 26 25 26 25 25 23 23 24
28 29 30 31 31 31 31 32 34 36 37 37 38 38 36 35 35 34 33 33 33 32 31 30 31 32 33 33 35 37 37 35 33 33 34 33 31 31 32 34 37 38 39 39 38 37 36 36 37 37 35 34 32 31 31 31 31 30 29 29 28 27 27
25 27 31 32 30 29 29 30 31 33 34 35 35 35 35 35 34 33 33 33 33 33 33 33 32 32 32 34 36 38 39 40 39 39 40 39 36 34 35 37 39 41 42 43 42 41 40 39 40 40 39 38 37 35 35 35 35 34 33 33 33 33 32
22 25 28 30 29 27 27 28 28 28 31 33 34 34 34 34 32 31 32 31 32 33 34 34 34 34 34 34 35 38 40 41 43 44 44 44 42 38 36 38 40 41 42 42 43 43 41 40 41 41 40 40 39 39 39 38 37 36 36 36 35 35 36
20 22 24 26 28 27 27 28 27 27 30 32 34 35 35 33 32 31 30 29 29 31 32 33 33 33 33 33 33 34 38 42 44 45 46 47 47 43 39 39 40 41 41 40 41 42 42 40 40 41 40 39 39 40 41 41 39 38 38 39 39 39 39
20 24 25 25 25 27 29 30 31 33 33 31 32 34 33 31 31 30 29 28 28 29 32 33 33 32 32 32 32 31 33 38 44 46 48 49 49 46 43 40 39 39 39 40 40 40 40 40 39 39 39 38 37 38 41 42 42 42 41 41 42 43 42
19 23 25 24 23 26 29 30 33 36 34 28 27 30 30 28 28 29 28 28 28 29 30 31 32 32 32 32 32 31 30 35 41 45 47 48 49 47 43 41 39 38 39 40 40 40 39 39 39 39 38 38 38 39 40 41 43 45 44 44 44 45 45
19 21 23 25 26 26 26 28 30 32 32 29 25 25 26 24 24 26 27 28 29 29 30 31 32 32 32 32 32 31 31 34 39 42 44 45 46 44 42 40 40 40 40 41 41 42 40 39 39 39 40 40 40 40 39 40 43 45 46 46 48 48 47
26 25 24 28 29 27 25 25 26 26 28 30 26 23 24 22 21 22 24 25 28 29 30 31 32 32 32 32 32 32 32 34 37 40 41 41 41 41 40 41 42 43 44 44 44 44 42 40 40 39 40 40 41 41 40 42 44 45 46 47 48 49 49
32 29 25 28 30 28 24 22 21 19 20 23 23 22 23 22 20 20 20 21 24 27 29 31 32 32 32 32 31 32 33 35 36 38 40 40 41 42 43 43 44 45 46 46 45 45 43 42 42 41 42 42 42 43 44 45 46 47 47 48 49 51 51
33 32 29 30 31 28 23 20 19 19 19 23 25 25 24 23 20 18 17 18 20 22 26 30 31 31 31 32 30 31 34 36 38 40 42 43 45 46 46 45 45 47 47 47 47 46 46 45 45 45 45 46 46 47 47 47 47 48 48 49 52 53 52
29 30 29 28 28 26 22 20 23 25 24 24 24 24 24 23 21 19 16 15 17 18 21 25 27 28 29 30 30 30 34 37 39 42 45 46 47 47 47 46 46 47 48 48 48 48 47 46 46 47 48 49 49 49 49 48 49 49 49 49 52 54 54
26 27 27 26 25 26 24 24 26 28 26 23 22 22 24 23 20 19 18 16 16 17 18 20 22 23 25 28 29 29 32 36 39 41 46 48 49 48 48 48 48 48 49 50 50 50 48 47 47 47 48 49 49 49 48 48 49 49 49 49 51 53 54
27 27 27 26 25 27 28 27 27 27 27 26 25 25 26 26 23 21 19 18 18 18 18 19 20 21 23 26 28 28 30 35 38 40 44 47 49 50 49 48 49 50 50 51 52 51 50 49 49 49 50 50 50 49 50 50 50 50 50 50 51 52 53
30 30 29 27 26 27 27 28 29 29 28 28 26 23 22 25 26 23 21 21 21 21 20 21 22 22 23 24 26 26 28 33 37 40 42 45 47 48 48 48 49 50 52 51 52 52 51 52 51 51 51 51 50 50 49 49 50 50 49 49 50 51 51
30 30 29 28 27 28 28 28 29 29 29 29 28 23 20 24 26 25 24 24 23 22 21 22 23 23 23 24 26 26 27 30 34 38 40 43 44 45 47 48 49 50 51 51 51 51 51 51 51 50 50 49 48 48 47 46 46 46 46 47 49 49 49
30 31 31 29 29 30 29 28 29 29 29 29 29 26 24 26 27 26 27 27 25 23 23 22 23 25 24 25 26 28 28 29 31 35 39 41 42 44 46 49 49 50 51 51 51 51 50 50 51 50 48 48 48 47 47 46 45 44 44 45 46 47 47
34 34 33 32 32 32 31 30 30 30 30 30 31 29 29 30 30 30 30 31 28 26 24 24 25 26 26 26 27 28 29 30 30 32 35 38 39 41 44 47 48 49 50 50 51 51 51 51 51 51 50 50 50 49 47 46 46 46 46 46 45 45 46
37 38 36 35 35 34 34 33 33 32 32 32 32 32 32 33 33 32 31 32 30 28 26 26 28 29 28 28 29 29 29 30 30 31 33 35 37 39 41 44 46 48 48 49 50 50 50 50 50 51 51 51 50 50 48 47 47 47 47 47 46 46 46
39 39 38 38 38 37 36 36 35 34 35 34 33 34 34 34 35 34 34 33 33 31 28 28 30 31 30 30 30 31 31 31 31 31 32 33 35 38 40 41 43 44 46 47 48 48 49 49 50 50 51 51 50 49 47 47 47 47 47 46 45 46 47
40 40 39 38 38 38 37 37 37 37 37 35 34 34 34 35 35 34 34 34 34 33 31 30 30 31 31 31 31 31 32 32 32 33 33 33 34 36 39 39 40 42 43 43 44 46 47 48 48 48 47 48 48 46 45 44 45 45 45 44 45 46 47
40 40 40 38 37 38 37 37 38 38 37 36 35 33 33 33 34 34 35 35 35 35 34 32 32 31 31 31 31 31 31 32 33 33 34 35 34 35 36 37 38 40 41 41 41 42 43 42 42 42 42 43 43 42 42 42 42 43 43 43 43 44 44
41 41 41 38 36 37 38 37 37 38 37 37 36 34 32 32 31 32 33 34 35 35 35 35 34 33 32 31 31 31 32 32 33 33 34 36 35 35 35 36 36 37 38 37 37 38 38 38 37 37 38 38 39 38 38 38 38 39 39 39 39 40 40
43 42 41 40 39 39 39 38 38 38 37 37 36 35 33 32 31 31 32 34 36 36 35 36 36 35 34 34 33 32 34 36 37 36 36 36 37 37 37 36 36 36 36 36 36 37 36 36 36 36 36 36 36 36 36 36 36 36 36 36 37 38 38